Regional Weather Roundup
Issued by NWS

Home | Current Version | Previous Version | Graphics & Text | Print | Product List | Glossary On
Versions: 1 2 3 4 5 6 7 8 9 10 11 12 13 14 15 16 17 18 19 20 21 22 23 24 25 26 27 28 29 30 31 32 33 34 35 36 37 38 39 40 41 42 43 44 45 46 47 48 49 50
000
ASUS43 KOAX 252110
RWRNE

WEATHER ROUNDUP FOR NEBRASKA
NATIONAL WEATHER SERVICE OMAHA NE
400 PM CDT WED APR 25 2018

NOTES: SATELLITE DATA IS BEING USED TO AUGMENT CLOUD COVER ABOVE
       12000 FEET.
       "FAIR" INDICATES FEW OR NO CLOUDS BELOW 12,000 FEET WITH NO
       SIGNIFICANT WEATHER AND/OR OBSTRUCTIONS TO VISIBILITY.


NEZ001>004-019>022-054>056-252200-
NEBRASKA PANHANDLE

CITY           SKY/WX    TMP DP  RH WIND       PRES   REMARKS
SCOTTSBLUFF    SUNNY     67  26  21 S12G17    30.07F
ALLIANCE       SUNNY     63  22  20 SW13G18   30.09F
CHADRON        MOSUNNY   68  20  16 SW13G21   30.02F
GORDON         FAIR      64  28  25 SW14      30.05F
KIMBALL        SUNNY     63  22  21 SW7       30.13F
SIDNEY         SUNNY     63  27  25 W6        30.13F
$$

NEZ057>060-069>072-079>082-252200-
SOUTHWEST NEBRASKA

CITY           SKY/WX    TMP DP  RH WIND       PRES   REMARKS
NORTH PLATTE   SUNNY     61  29  29 VRB7      30.14F
IMPERIAL       SUNNY     59  29  31 SW5       30.15F
LEXINGTON      SUNNY     58  32  37 N6        30.14F
MCCOOK         SUNNY     60  31  33 VRB5      30.14F
OGALLALA       SUNNY     61  30  31 W8        30.14F
$$

NEZ005>010-023>029-035>040-094-252200-
NORTH CENTRAL NEBRASKA

CITY           SKY/WX    TMP DP  RH WIND       PRES   REMARKS
VALENTINE      SUNNY     64  21  19 S10G21    30.08F
AINSWORTH      SUNNY     60  27  28 W10G16    30.11F
BROKEN BOW     SUNNY     58  33  39 VRB5      30.13F
O`NEILL        SUNNY     60  28  29 S3        30.13F
ORD            SUNNY     56  26  31 SW5       30.12F
THEDFORD       SUNNY     63  25  23 W9        30.12F
$$

NEZ041-046>049-061>064-073>077-083>087-252200-
SOUTH CENTRAL NEBRASKA

CITY           SKY/WX    TMP DP  RH WIND       PRES   REMARKS
GRAND ISLAND   SUNNY     57  33  40 W5        30.14F
AURORA         SUNNY     55  33  44 CALM      30.15F
HASTINGS       SUNNY     55  33  43 VRB7      30.15F
HEBRON         CLOUDY    52  38  59 N6        30.15F
HOLDREGE       SUNNY     56  36  47 N6        30.15F
KEARNEY        SUNNY     57  32  38 N9        30.15F
YORK             N/A     55  36  47 E3        30.14F
$$

NEZ011>018-030>034-042>045-252200-
NORTHEAST NEBRASKA

CITY           SKY/WX    TMP DP  RH WIND       PRES   REMARKS
NORFOLK        SUNNY     59  30  33 N9        30.10F
ALBION         SUNNY     58  30  35 CALM      30.13F
BLAIR          MOSUNNY   59  35  41 N5        30.11F
COLUMBUS       SUNNY     58  34  40 NW6       30.13F
FREMONT        SUNNY     61  33  36 NE3       30.13F
TEKAMAH        SUNNY     61  31  32 N7        30.11F
WAYNE          SUNNY     59  31  35 CALM      30.12F
$$

NEZ050>053-065>068-078-088>093-252200-
SOUTHEAST NEBRASKA

CITY           SKY/WX    TMP DP  RH WIND       PRES   REMARKS
LINCOLN        MOSUNNY   56  34  43 VRB6      30.15F
OMAHA EPPLEY   MOSUNNY   61  36  39 CALM      30.10F
BEATRICE       CLOUDY    52  40  63 NE7       30.15F
FALLS CITY     CLOUDY    54  41  61 N10       30.12F
NEBRASKA CITY  CLOUDY    51  42  71 NW6       30.14F
PLATTSMOUTH    CLOUDY    54  36  50 W6        30.13F
$$

NEZ044-045-051>053-067-252200-
OMAHA AREA

CITY           SKY/WX    TMP DP  RH WIND       PRES   REMARKS
OMAHA EPPLEY   MOSUNNY   61  36  39 CALM      30.10F
BLAIR          MOSUNNY   59  35  41 N5        30.11F
FREMONT        SUNNY     61  33  36 NE3       30.13F
MILLARD        CLOUDY    59  36  42 CALM      30.12F
OFFUTT AFB     CLOUDY    59  36  43 NW8       30.10F
PLATTSMOUTH    CLOUDY    54  36  50 W6        30.13F
WAHOO          FAIR      58  34  40 W3        30.13F
$$




USA.gov is the U.S. government's official web portal to all federal, state and local government web resources and services.